[[[{"header":{"parameterUnit":"kt","parameterCategory":2,"dx":1,"dy":1,"la1":30.253999710083008,"la2":30.299108505249023,"lo1":-89.0895004272461,"lo2":-89.04439544677734,"nx":28,"ny":28,"refTime":"2022-09-24T21:00:00:Z","depth":"0","parameterNumber":2,"parameterNumberName":"U-component_of_CURRENTS"},"data":[0.6243,0.6072,0.6023,0.5757,0.5607,0.5402,0.5367,0.5403,0.556,0.566,0.5745,0.5933,0.6118,0.6236,0.61,0.613,0.555,0.5499,0.5344,0.589,0.596,0.6027,0.5804,0.5346,0.5344,0.4049,0.4037,0.4029,0.6353,0.6241,0.6083,0.584,0.5711,0.5682,0.5686,0.5679,0.5839,0.6122,0.6412,0.6648,0.7003,0.732,0.7574,0.7386,0.7216,0.7092,0.6472,0.639,0.7511,0.7344,0.7205,0.7206,0.7206,0.7207,0.7207,0.7208,0.6491,0.6368,0.6175,0.5993,0.5872,0.5797,0.575,0.589,0.6052,0.6296,0.6602,0.69,0.7365,0.8177,0.8382,0.8349,0.8353,0.8083,0.7928,0.7693,0.7384,0.8611,0.8854,0.8857,0.8859,0.886,0.8862,0,0.6552,0.6474,0.6329,0.61,0.5999,0.5934,0.5962,0.6013,0.626,0.6441,0.673,0.6981,0.7626,0.7986,0.8552,0.8787,0.829,0.8812,0.8281,0.7637,0.7236,0.7115,0.8344,0.8514,0.8515,0.8515,0.8516,0.8516,0.663,0.6536,0.6316,0.6204,0.6138,0.6088,0.6103,0.6258,0.6359,0.6656,0.6732,0.7102,0.7413,0.8029,0.8393,0.8817,0.8416,0.8808,0.8655,0.8094,0.7953,0.7655,0.7494,0.8521,0.852,0.852,0.8519,0,0.6658,0.6567,0.6408,0.6305,0.6276,0.6228,0.6306,0.6359,0.655,0.6688,0.6744,0.7075,0.7431,0.7751,0.8126,0.8284,0.8315,0.868,0.8424,0.8479,0.8145,0.7958,0.7706,0.7523,0.8931,0.8935,0.8938,0,0.6696,0.6601,0.6466,0.6404,0.6325,0.6402,0.6437,0.6528,0.6701,0.6797,0.6993,0.712,0.7416,0.7671,0.7855,0.82,0.8216,0.8337,0.8429,0.8229,0.8218,0.7792,0.7588,0.833,0.8328,0.8326,0.8324,0,0.6764,0.6643,0.6539,0.6523,0.6507,0.6526,0.6558,0.672,0.6791,0.6954,0.7029,0.7242,0.7364,0.7566,0.7815,0.7768,0.8141,0.8127,0.8335,0.8343,0.8214,0.8206,0.7852,0.8321,0.832,0.8319,0.8319,0,0.6834,0.6743,0.6637,0.6598,0.6598,0.6595,0.6699,0.6746,0.6906,0.6976,0.7104,0.7193,0.7363,0.7364,0.7678,0.7607,0.7761,0.7869,0.7886,0.793,0.8005,0.8041,0.8175,0.7657,0.8095,0.8092,0.8089,0,0.6875,0.6768,0.6812,0.6727,0.6662,0.675,0.681,0.687,0.693,0.6992,0.7117,0.7197,0.7242,0.7313,0.7423,0.7588,0.7707,0.7572,0.7887,0.7895,0.7935,0.8085,0.7889,0.8131,0.8053,0.8057,0.806,0,0.6944,0.6884,0.6875,0.6828,0.6862,0.683,0.6895,0.6916,0.6956,0.6985,0.7041,0.7176,0.7224,0.7292,0.7397,0.7489,0.7654,0.7541,0.7547,0.7638,0.7958,0.8028,0.806,0.7739,0.7742,0.7744,0.8031,0,0.6972,0.6931,0.6915,0.6912,0.6909,0.6863,0.6893,0.6905,0.6923,0.693,0.7038,0.7125,0.7228,0.7287,0.7334,0.7473,0.7516,0.7542,0.7527,0.7597,0.7718,0.7741,0.7462,0.7461,0.746,0.746,0,0,0.7019,0.6991,0.7013,0.6991,0.6975,0.697,0.6931,0.6929,0.6914,0.6945,0.6943,0.7101,0.717,0.7324,0.7347,0.7399,0.7483,0.7381,0.756,0.7571,0.7581,0.7699,0.7721,0.7459,0.7459,0.7458,0.7458,0,0.7044,0.7065,0.7042,0.7022,0.6985,0.6964,0.6961,0.6907,0.6905,0.6929,0.6993,0.7081,0.7168,0.7247,0.7308,0.7387,0.7446,0.7433,0.7421,0.7552,0.7564,0.7574,0.7692,0.7713,0.7457,0.7457,0.7457,0,0.709,0.7093,0.7085,0.7054,0.7013,0.6979,0.6962,0.6913,0.6904,0.6952,0.6968,0.7037,0.713,0.7217,0.7262,0.7259,0.7424,0.7356,0.736,0.7296,0.7428,0.7441,0.7454,0.7293,0.7292,0.7292,0,0,0.7111,0.7113,0.7076,0.7054,0.7039,0.6982,0.6946,0.6921,0.6924,0.6922,0.6954,0.7023,0.7106,0.716,0.7205,0.7289,0.7327,0.7335,0.7342,0.7349,0.7289,0.742,0.7434,0.7289,0.7289,0.7289,0,0,0.7105,0.7096,0.7096,0.7077,0.7028,0.6953,0.6917,0.6897,0.6905,0.6927,0.6972,0.6992,0.708,0.7111,0.7074,0.7216,0.7185,0.7194,0.7199,0.7209,0.7217,0.7129,0.7075,0,0,0,0,0,0.7116,0.7105,0.7106,0.7099,0.7029,0.696,0.6942,0.6895,0.6901,0.6871,0.6934,0.6945,0.7107,0.7074,0.7088,0.714,0.7257,0.7262,0.7268,0.7292,0.7302,0.7311,0,0,0,0,0,0,0.7113,0.7108,0.7104,0.7042,0.7024,0.6961,0.6956,0.6941,0.6903,0.69,0.6931,0.6946,0.6971,0.7068,0.708,0.7129,0.7071,0.7259,0.7264,0.7268,0.7295,0.7304,0.7311,0,0,0,0,0,0.7111,0.7106,0.7024,0.7038,0.7023,0.6956,0.6958,0.6945,0.6908,0.6945,0.6952,0.688,0.6969,0.6986,0.7075,0.7124,0.7062,0.7067,0.7262,0.7266,0.7269,0.73,0,0,0,0,0,0,0.7109,0.7067,0.7018,0.7009,0.7058,0.6957,0.6946,0.6948,0.6957,0.6959,0.69,0.6899,0.6967,0.698,0.6993,0.7121,0.7055,0.706,0.7063,0.7265,0.7268,0.7271,0,0,0,0,0,0,0.7069,0.706,0.7013,0.7042,0.7035,0.6957,0.6948,0.6994,0.6965,0.6913,0.691,0.6901,0.7022,0.6977,0.6987,0.7051,0.705,0.7054,0.7057,0.7059,0.7268,0.727,0,0,0,0,0,0,0.7063,0.7055,0.7043,0.7038,0.7032,0.6918,0.7003,0.6975,0.6859,0.6918,0.6863,0.6865,0.7023,0.7028,0.6982,0.7042,0.7049,0.705,0.7053,0.7055,0.7057,0,0,0,0,0,0,0,0.7058,0.7142,0.7082,0.7035,0.703,0.6925,0.6921,0.6918,0.686,0.6861,0.6863,0.6864,0.7024,0.7029,0.7034,0.7034,0,0,0.705,0.7052,0,0,0,0,0,0,0,0,0.7142,0.7142,0.7081,0.708,0.7078,0.6924,0.6922,0.6919,0.686,0.6861,0.6862,0.6864,0.7025,0.7029,0.7033,0,0,0,0,0,0,0,0,0,0,0,0,0,0,0,0.7081,0.708,0,0.6924,0.6922,0.6919,0.686,0.6861,0.6862,0.6863,0.7027,0.703,0.7033,0,0,0,0,0,0,0,0,0,0,0,0,0,0,0,0,0,0,0,0,0,0,0,0,0,0,0,0,0,0,0,0,0,0,0,0,0,0,0,0,0,0,0,0,0,0,0,0,0,0,0,0,0,0,0,0,0,0,0,0,0,0,0,0,0,0,0,0,0]}],[{"header":{"parameterUnit":"kt","parameterCategory":2,"dx":1,"dy":1,"la1":30.253999710083008,"la2":30.299108505249023,"lo1":-89.0895004272461,"lo2":-89.04439544677734,"nx":28,"ny":28,"refTime":"2022-09-24T21:00:00:Z","depth":"0","parameterNumber":3,"parameterNumberName":"V-component_of_CURRENTS"},"data":[-0.1629,-0.1317,-0.1211,-0.0653,-0.0391,0.0032,0.0255,0.0663,0.1052,0.1804,0.2289,0.2511,0.2165,0.0747,-0.0261,-0.0553,-0.0949,-0.0929,-0.1246,-0.1225,-0.1256,-0.1286,-0.1283,-0.1004,-0.1005,-0.1282,-0.1285,-0.1288,-0.1826,-0.1684,-0.1387,-0.0939,-0.0644,-0.0577,-0.0268,-0.0024,0.0425,0.0884,0.1209,0.1531,0.1249,0.0708,0.0012,-0.0462,-0.0733,-0.0766,-0.0932,-0.0978,-0.0797,-0.0754,-0.0358,-0.0358,-0.0357,-0.0357,-0.0357,-0.0357,-0.2147,-0.1945,-0.1652,-0.1288,-0.1021,-0.0758,-0.0551,-0.0369,-0.0099,0.0313,0.027,0.0689,0.0446,0.0093,-0.0287,-0.0765,-0.0925,-0.0913,-0.1072,-0.1178,-0.1164,-0.0924,-0.0608,-0.0611,-0.0614,-0.0617,-0.0619,0,-0.2317,-0.221,-0.1962,-0.1572,-0.1326,-0.111,-0.0946,-0.0815,-0.0787,-0.0586,-0.0322,-0.0211,-0.0321,-0.036,-0.0669,-0.0888,-0.1414,-0.1268,-0.152,-0.1411,-0.1456,-0.1514,-0.1468,-0.1158,-0.1165,-0.117,-0.1173,-0.1176,-0.2521,-0.2358,-0.198,-0.1774,-0.1638,-0.1438,-0.1331,-0.1325,-0.1245,-0.1091,-0.0955,-0.0927,-0.0828,-0.0976,-0.1259,-0.1476,-0.1742,-0.1419,-0.1557,-0.1726,-0.1906,-0.2023,-0.2051,-0.1248,-0.1238,-0.1231,-0.1225,0,-0.2597,-0.2453,-0.2147,-0.1903,-0.1819,-0.1657,-0.1558,-0.148,-0.15,-0.1329,-0.1306,-0.1363,-0.1382,-0.1616,-0.1781,-0.1935,-0.2021,-0.2025,-0.1754,-0.1741,-0.1847,-0.1991,-0.1881,-0.1888,-0.1885,-0.188,-0.1875,0,-0.2674,-0.2488,-0.2257,-0.2133,-0.1887,-0.1908,-0.178,-0.178,-0.1769,-0.1645,-0.1814,-0.1687,-0.1964,-0.1985,-0.2186,-0.2189,-0.2244,-0.2297,-0.2316,-0.2131,-0.2104,-0.226,-0.2402,-0.2487,-0.2488,-0.2489,-0.2489,0,-0.2818,-0.2564,-0.236,-0.2289,-0.213,-0.2086,-0.2053,-0.2088,-0.2052,-0.205,-0.1975,-0.2066,-0.2032,-0.2169,-0.2318,-0.241,-0.2335,-0.2492,-0.2395,-0.2385,-0.2168,-0.214,-0.2131,-0.2491,-0.2491,-0.2491,-0.2492,0,-0.2924,-0.2773,-0.2544,-0.237,-0.2336,-0.2253,-0.221,-0.2185,-0.2207,-0.2219,-0.2236,-0.2295,-0.2314,-0.2432,-0.2494,-0.2531,-0.2608,-0.2658,-0.2657,-0.2509,-0.2604,-0.2278,-0.2069,-0.2262,-0.2676,-0.2678,-0.268,0,-0.3028,-0.2831,-0.286,-0.2638,-0.25,-0.255,-0.2524,-0.2506,-0.2518,-0.2458,-0.2538,-0.2504,-0.2645,-0.2643,-0.2676,-0.2746,-0.2734,-0.2796,-0.2798,-0.2796,-0.2657,-0.2511,-0.2265,-0.2116,-0.2702,-0.2699,-0.2698,0,-0.3165,-0.3049,-0.3029,-0.2919,-0.2875,-0.2792,-0.2784,-0.2714,-0.2671,-0.2668,-0.2587,-0.268,-0.271,-0.2738,-0.2816,-0.2819,-0.2773,-0.2894,-0.2896,-0.284,-0.2727,-0.2564,-0.2533,-0.2846,-0.2844,-0.2842,-0.2715,0,-0.3208,-0.3134,-0.3102,-0.3049,-0.2999,-0.2887,-0.2879,-0.2852,-0.2855,-0.2814,-0.2812,-0.2875,-0.2882,-0.2922,-0.2986,-0.2956,-0.2964,-0.3034,-0.3066,-0.3002,-0.2957,-0.2942,-0.313,-0.3131,-0.3132,-0.3133,0,0,-0.3302,-0.326,-0.3308,-0.3242,-0.3173,-0.316,-0.3049,-0.3014,-0.2935,-0.2928,-0.2973,-0.298,-0.3058,-0.3058,-0.3056,-0.3097,-0.3086,-0.3095,-0.3041,-0.3031,-0.3021,-0.2974,-0.2959,-0.3136,-0.3136,-0.3136,-0.3137,0,-0.3347,-0.339,-0.3359,-0.3297,-0.322,-0.3167,-0.315,-0.3044,-0.3024,-0.2978,-0.3034,-0.3069,-0.3103,-0.3132,-0.316,-0.3116,-0.315,-0.3143,-0.3053,-0.3053,-0.3041,-0.303,-0.2981,-0.2967,-0.314,-0.314,-0.3139,0,-0.3417,-0.3426,-0.3418,-0.3367,-0.3299,-0.3206,-0.3209,-0.3114,-0.3049,-0.3122,-0.3075,-0.3127,-0.3186,-0.3196,-0.3215,-0.3234,-0.3194,-0.3239,-0.3233,-0.3188,-0.3188,-0.3175,-0.3162,-0.3318,-0.3319,-0.3319,0,0,-0.3447,-0.3459,-0.3398,-0.3369,-0.3341,-0.324,-0.3176,-0.313,-0.31,-0.3082,-0.311,-0.3152,-0.3191,-0.3223,-0.3251,-0.3257,-0.3248,-0.3259,-0.325,-0.3243,-0.3195,-0.3193,-0.318,-0.3321,-0.3321,-0.3321,0,0,-0.3438,-0.3434,-0.3436,-0.3417,-0.3327,-0.3203,-0.3144,-0.3104,-0.3072,-0.3097,-0.3154,-0.3175,-0.3213,-0.3245,-0.3258,-0.327,-0.3306,-0.3305,-0.3251,-0.3241,-0.3233,-0.3169,-0.3322,0,0,0,0,0,-0.3453,-0.3443,-0.3446,-0.3437,-0.333,-0.3208,-0.3177,-0.3113,-0.3125,-0.3071,-0.3117,-0.3172,-0.3257,-0.327,-0.3281,-0.3276,-0.3341,-0.3337,-0.3334,-0.3267,-0.3256,-0.3246,0,0,0,0,0,0,-0.345,-0.3445,-0.3444,-0.3341,-0.3314,-0.3209,-0.3224,-0.3201,-0.3131,-0.313,-0.3153,-0.3172,-0.3212,-0.3268,-0.3278,-0.3271,-0.3319,-0.3339,-0.3336,-0.3334,-0.3263,-0.3254,-0.3246,0,0,0,0,0,-0.3446,-0.3441,-0.3324,-0.3335,-0.3312,-0.3214,-0.3228,-0.3209,-0.3142,-0.3187,-0.3196,-0.3107,-0.3208,-0.3224,-0.3274,-0.3266,-0.3313,-0.3316,-0.3337,-0.3335,-0.3333,-0.3258,0,0,0,0,0,0,-0.3443,-0.3373,-0.3313,-0.3297,-0.3383,-0.3216,-0.3202,-0.3216,-0.3206,-0.3207,-0.3151,-0.3153,-0.3204,-0.3218,-0.3229,-0.326,-0.3308,-0.3311,-0.3313,-0.3336,-0.3334,-0.3332,0,0,0,0,0,0,-0.3375,-0.3362,-0.3304,-0.337,-0.3361,-0.3218,-0.3206,-0.3231,-0.3216,-0.3171,-0.3169,-0.3154,-0.3292,-0.3212,-0.3222,-0.3249,-0.3304,-0.3307,-0.3309,-0.3311,-0.3334,-0.3333,0,0,0,0,0,0,-0.3365,-0.3354,-0.3373,-0.3366,-0.3358,-0.3168,-0.3245,-0.3199,-0.3087,-0.3179,-0.3098,-0.3103,-0.3293,-0.3296,-0.3216,-0.3238,-0.3246,-0.3304,-0.3306,-0.3308,-0.3309,0,0,0,0,0,0,0,-0.3357,-0.3491,-0.342,-0.3362,-0.3355,-0.3156,-0.315,-0.3145,-0.3088,-0.3092,-0.3097,-0.3101,-0.3286,-0.3289,-0.3293,-0.3229,0,0,-0.3304,-0.3305,0,0,0,0,0,0,0,0,-0.349,-0.349,-0.3419,-0.3417,-0.3415,-0.3155,-0.315,-0.3146,-0.3089,-0.3092,-0.3096,-0.3099,-0.3287,-0.329,-0.3292,0,0,0,0,0,0,0,0,0,0,0,0,0,0,0,-0.3419,-0.3417,0,-0.3154,-0.3151,-0.3147,-0.3089,-0.3092,-0.3095,-0.3098,-0.3288,-0.329,-0.3292,0,0,0,0,0,0,0,0,0,0,0,0,0,0,0,0,0,0,0,0,0,0,0,0,0,0,0,0,0,0,0,0,0,0,0,0,0,0,0,0,0,0,0,0,0,0,0,0,0,0,0,0,0,0,0,0,0,0,0,0,0,0,0,0,0,0,0,0,0]}]],[[{"header":{"parameterUnit":"kt","parameterCategory":2,"dx":1,"dy":1,"la1":30.253999710083008,"la2":30.299108505249023,"lo1":-89.0895004272461,"lo2":-89.04439544677734,"nx":28,"ny":28,"refTime":"2022-09-24T21:00:00:Z","depth":"2","parameterNumber":2,"parameterNumberName":"U-component_of_CURRENTS"},"data":[0.4474,0.4548,0.448,0.4456,0.4394,0.4206,0.4164,0.3986,0.3901,0.3675,0.3542,0.3511,0.3799,0.3133,0.3095,0.2942,0.3431,0.2864,0.446,0.4346,0.4449,0.4792,0.4205,0,0,0,0,0,0.4327,0.4403,0.44,0.4494,0.4409,0.4442,0.4455,0.4354,0.4463,0.4486,0.4575,0.4115,0.3964,0.4235,0.39,0.3896,0.382,0.398,0.3802,0.3921,0.4029,0.3568,0.2848,0.2844,0.284,0.2837,0,0,0.4288,0.4299,0.4459,0.4444,0.4497,0.4479,0.4476,0.4572,0.4775,0.489,0.522,0.5233,0.5253,0.5131,0.5181,0.522,0.5613,0.5455,0.5493,0.5547,0.5168,0.488,0.4866,0.4875,0.4883,0.489,0.4896,0,0.4186,0.4318,0.441,0.4414,0.4502,0.4536,0.4578,0.4689,0.492,0.5132,0.5461,0.5677,0.6005,0.5874,0.6112,0.6207,0.6371,0.624,0.7354,0.5541,0.5257,0.5208,0.5213,0.5381,0.5393,0.5402,0.5409,0.5414,0.4114,0.4225,0.4376,0.4444,0.4507,0.4535,0.4551,0.4698,0.4797,0.5235,0.5349,0.5842,0.6073,0.6677,0.6666,0.6958,0.7313,0.6528,0.6134,0.6835,0.6796,0.6744,0.6694,0.5548,0.5531,0.5517,0.5506,0,0.4034,0.4233,0.441,0.446,0.4479,0.4462,0.4616,0.4666,0.4847,0.5116,0.5224,0.5567,0.6022,0.636,0.692,0.6879,0.7202,0.7253,0.6415,0.6314,0.6758,0.67,0.7244,0.7238,0.7232,0.7228,0.7224,0,0.3974,0.4151,0.4227,0.4303,0.4376,0.4393,0.4568,0.4579,0.4771,0.4972,0.5132,0.538,0.5756,0.6143,0.6369,0.6686,0.6963,0.669,0.6704,0.6046,0.5954,0.665,0.659,0.7128,0.7123,0.7119,0.7116,0,0.3807,0.405,0.4231,0.4255,0.4354,0.443,0.4419,0.4507,0.4636,0.4853,0.499,0.5356,0.5585,0.5917,0.621,0.608,0.6775,0.6639,0.6567,0.6545,0.6023,0.593,0.7111,0.711,0.7109,0.7107,0.7106,0,0.3781,0.3826,0.4088,0.4202,0.422,0.4306,0.4302,0.4421,0.4596,0.4683,0.4919,0.5035,0.5387,0.5296,0.586,0.5641,0.5854,0.5987,0.6011,0.5697,0.5523,0.525,0.5512,0.6174,0.6165,0.6157,0.6149,0,0.3588,0.3779,0.3824,0.4027,0.4082,0.404,0.4138,0.4205,0.4273,0.4454,0.4611,0.4832,0.4817,0.4914,0.5125,0.5341,0.5582,0.5257,0.5717,0.5732,0.5361,0.5735,0.5015,0.5415,0.6044,0.6055,0.6063,0,0.3365,0.3519,0.3561,0.363,0.3656,0.3639,0.3794,0.39,0.3985,0.419,0.4393,0.4637,0.471,0.478,0.4819,0.4999,0.5402,0.4953,0.4963,0.5112,0.596,0.5627,0.5667,0.5409,0.5421,0.5431,0.598,0,0.3238,0.3376,0.3421,0.3469,0.3472,0.3566,0.3549,0.3649,0.3698,0.3779,0.4073,0.4205,0.441,0.446,0.4432,0.4771,0.4748,0.4699,0.4547,0.4821,0.5021,0.5087,0.4258,0.4255,0.4253,0.4251,0,0,0.3084,0.3148,0.3026,0.3117,0.3137,0.307,0.3202,0.3244,0.3425,0.3523,0.3503,0.388,0.3957,0.4189,0.4275,0.4317,0.4431,0.4199,0.4667,0.4712,0.4755,0.4959,0.5025,0.4246,0.4245,0.4244,0.4243,0,0.2967,0.2882,0.2972,0.2975,0.3019,0.2998,0.3044,0.312,0.3185,0.3394,0.3447,0.3648,0.3809,0.3911,0.3956,0.4252,0.4242,0.4269,0.4374,0.4635,0.4684,0.4728,0.4937,0.4999,0.4237,0.4237,0.4238,0,0.2795,0.2764,0.2773,0.2781,0.2796,0.2871,0.2801,0.2889,0.2996,0.2984,0.3231,0.3332,0.3404,0.3608,0.371,0.3616,0.4058,0.3855,0.3873,0.3896,0.416,0.4217,0.4267,0.3611,0.3608,0.3606,0,0,0.2732,0.2729,0.2711,0.276,0.2765,0.2781,0.2817,0.2838,0.2917,0.2967,0.3069,0.3188,0.3315,0.3378,0.3512,0.3679,0.3772,0.3775,0.3805,0.3829,0.3864,0.4133,0.4188,0.3597,0.3597,0.3596,0,0,0.2707,0.2648,0.2637,0.267,0.2706,0.2698,0.2754,0.2771,0.2894,0.2929,0.2945,0.2973,0.3218,0.3222,0.3101,0.3429,0.3314,0.3341,0.3385,0.3422,0.3452,0.3456,0.2974,0,0,0,0,0,0.2604,0.2645,0.2635,0.2638,0.265,0.2698,0.2707,0.2714,0.2718,0.2776,0.2883,0.2821,0.3172,0.3064,0.3091,0.3197,0.3478,0.3499,0.3519,0.3625,0.3664,0.3697,0,0,0,0,0,0,0.2605,0.2603,0.2635,0.2619,0.2623,0.2694,0.2631,0.2634,0.2712,0.2712,0.2806,0.2821,0.2814,0.3047,0.3072,0.3174,0.2965,0.3487,0.3504,0.3521,0.3638,0.367,0.3698,0,0,0,0,0,0.2605,0.2604,0.2613,0.262,0.2624,0.2642,0.2629,0.2632,0.2709,0.2731,0.2747,0.2722,0.2813,0.284,0.3062,0.3164,0.2948,0.2957,0.3498,0.3512,0.3525,0.3654,0,0,0,0,0,0,0.2606,0.2616,0.2615,0.2619,0.2608,0.2641,0.2642,0.263,0.2727,0.2739,0.2641,0.2639,0.2813,0.2834,0.2854,0.3162,0.2934,0.2943,0.2949,0.3509,0.352,0.353,0,0,0,0,0,0,0.2617,0.2618,0.2617,0.26,0.2602,0.2641,0.2641,0.2744,0.2732,0.2632,0.2632,0.264,0.2816,0.283,0.2846,0.3003,0.2923,0.2932,0.2938,0.2942,0.3518,0.3527,0,0,0,0,0,0,0.2618,0.262,0.2599,0.2601,0.2602,0.2642,0.2738,0.2771,0.2649,0.2631,0.2646,0.2645,0.2815,0.2829,0.284,0.299,0.3,0.2923,0.2929,0.2934,0.2937,0,0,0,0,0,0,0,0.262,0.2597,0.2595,0.2601,0.2602,0.2652,0.2653,0.2654,0.2649,0.2648,0.2646,0.2645,0.287,0.288,0.289,0.2979,0,0,0.2922,0.2926,0,0,0,0,0,0,0,0,0.2599,0.2598,0.2595,0.2596,0.2597,0.2652,0.2653,0.2653,0.2649,0.2648,0.2647,0.2646,0.2873,0.2881,0.2889,0,0,0,0,0,0,0,0,0,0,0,0,0,0,0,0.2595,0.2596,0,0.2652,0.2653,0.2653,0.2649,0.2648,0.2647,0.2646,0.2875,0.2882,0.2889,0,0,0,0,0,0,0,0,0,0,0,0,0,0,0,0,0,0,0,0,0,0,0,0,0,0,0,0,0,0,0,0,0,0,0,0,0,0,0,0,0,0,0,0,0,0,0,0,0,0,0,0,0,0,0,0,0,0,0,0,0,0,0,0,0,0,0,0,0]}],[{"header":{"parameterUnit":"kt","parameterCategory":2,"dx":1,"dy":1,"la1":30.253999710083008,"la2":30.299108505249023,"lo1":-89.0895004272461,"lo2":-89.04439544677734,"nx":28,"ny":28,"refTime":"2022-09-24T21:00:00:Z","depth":"2","parameterNumber":3,"parameterNumberName":"V-component_of_CURRENTS"},"data":[0.1155,0.1182,0.1334,0.1488,0.161,0.1916,0.2159,0.2512,0.2662,0.2881,0.2806,0.2767,0.214,0.1383,0.0758,0.0259,0.0345,0.0193,0.07,0.0751,0.079,0.0454,0.0481,0,0,0,0,0,0.132,0.1232,0.1304,0.1341,0.1515,0.1597,0.1934,0.2156,0.2562,0.268,0.2892,0.245,0.2066,0.1587,0.064,0.0229,0.0172,0.0178,0.0138,0.0174,0.0207,0.0198,-0.0153,-0.0154,-0.0156,-0.0157,0,0,0.1209,0.1271,0.1045,0.1302,0.133,0.1564,0.1765,0.1965,0.2188,0.2482,0.2595,0.2758,0.2325,0.1692,0.1256,0.0713,0.0823,0.0633,0.0645,0.0662,0.0675,0.0685,0.0452,0.0454,0.0457,0.0459,0.046,0,0.1306,0.1085,0.1039,0.1199,0.1212,0.1408,0.1594,0.1681,0.1842,0.2004,0.2343,0.2485,0.2268,0.1984,0.1498,0.1289,0.1063,0.0924,0.1269,0.0826,0.0835,0.0802,0.0829,0.063,0.0634,0.0637,0.0639,0.064,0.1291,0.1162,0.1146,0.1119,0.1088,0.1284,0.1444,0.157,0.168,0.1863,0.2009,0.2018,0.2243,0.2049,0.1682,0.1376,0.1458,0.1017,0.0963,0.1294,0.1258,0.1271,0.1283,0.068,0.0675,0.0671,0.0668,0,0.1315,0.1063,0.1022,0.1137,0.122,0.1418,0.1513,0.165,0.169,0.1824,0.1816,0.2026,0.204,0.1915,0.1769,0.1614,0.1471,0.1377,0.1218,0.1154,0.1288,0.1298,0.1165,0.1162,0.1161,0.1159,0.1158,0,0.1306,0.124,0.1184,0.1142,0.1377,0.1467,0.1553,0.1795,0.1863,0.1989,0.2005,0.2113,0.1978,0.1925,0.1782,0.1616,0.1625,0.1456,0.1406,0.125,0.1235,0.1409,0.1405,0.1455,0.1456,0.1457,0.1458,0,0.1341,0.1255,0.1175,0.1247,0.1404,0.1423,0.1643,0.19,0.1966,0.208,0.2085,0.2088,0.2027,0.1892,0.1779,0.1753,0.1654,0.1609,0.1451,0.1447,0.117,0.1144,0.1459,0.146,0.146,0.146,0.1461,0,0.128,0.1292,0.1138,0.1273,0.1329,0.1405,0.1868,0.1954,0.2129,0.2145,0.2115,0.2081,0.2069,0.1972,0.1866,0.1881,0.1726,0.1678,0.1669,0.1541,0.1486,0.1206,0.1192,0.1547,0.1549,0.155,0.1551,0,0.1398,0.1257,0.1233,0.1278,0.1341,0.1577,0.1744,0.1935,0.2047,0.2087,0.2113,0.2087,0.2034,0.1945,0.1923,0.1858,0.1788,0.1858,0.1541,0.1532,0.1526,0.1574,0.138,0.1225,0.1568,0.1566,0.1565,0,0.1551,0.1362,0.1337,0.134,0.1563,0.1715,0.1827,0.2011,0.2085,0.1993,0.2,0.2049,0.1918,0.1919,0.1875,0.1842,0.1815,0.1697,0.1689,0.166,0.1626,0.1599,0.1585,0.1737,0.1736,0.1735,0.1579,0,0.1579,0.1458,0.144,0.1501,0.1629,0.1666,0.1853,0.1871,0.1881,0.1891,0.1866,0.1822,0.1735,0.1753,0.1755,0.1749,0.1653,0.161,0.1511,0.1572,0.1492,0.1483,0.1535,0.1531,0.1527,0.1524,0,0,0.1701,0.1644,0.1758,0.1702,0.18,0.1926,0.1898,0.1963,0.185,0.1835,0.1742,0.1648,0.1594,0.1684,0.1703,0.1658,0.1553,0.1534,0.1542,0.1545,0.1547,0.1476,0.1471,0.1518,0.1517,0.1516,0.1515,0,0.1783,0.1905,0.1786,0.1858,0.1842,0.1951,0.1927,0.1866,0.183,0.178,0.1716,0.1661,0.1535,0.1552,0.1566,0.1615,0.1439,0.1532,0.1577,0.1516,0.1524,0.153,0.1463,0.1461,0.1506,0.1507,0.1507,0,0.1943,0.1968,0.1958,0.1997,0.1986,0.2018,0.1957,0.1903,0.1919,0.1779,0.1662,0.1597,0.156,0.1527,0.1473,0.1411,0.1324,0.134,0.1354,0.132,0.1249,0.1259,0.1268,0.1161,0.1161,0.1161,0,0,0.1983,0.1984,0.2027,0.2011,0.202,0.1989,0.1966,0.1911,0.1859,0.1807,0.1667,0.155,0.1558,0.1475,0.1416,0.1347,0.1259,0.1308,0.1324,0.1339,0.1315,0.1248,0.1256,0.116,0.116,0.116,0,0,0.1988,0.2027,0.2013,0.2012,0.2023,0.2023,0.1981,0.1933,0.1843,0.1767,0.1669,0.1632,0.1559,0.1446,0.1461,0.1354,0.1272,0.1267,0.1452,0.1469,0.1485,0.1485,0.1342,0,0,0,0,0,0.2049,0.2044,0.2033,0.2034,0.2028,0.2055,0.2048,0.1966,0.1873,0.1853,0.1754,0.1641,0.1447,0.146,0.1428,0.1419,0.1156,0.1157,0.1157,0.1379,0.14,0.1417,0,0,0,0,0,0,0.205,0.2056,0.2033,0.2045,0.2041,0.2054,0.1976,0.1955,0.1873,0.1852,0.1676,0.1641,0.1575,0.1465,0.1439,0.1433,0.135,0.1156,0.1157,0.1157,0.1386,0.1403,0.1418,0,0,0,0,0,0.2051,0.2055,0.2062,0.2042,0.2039,0.1954,0.1971,0.1952,0.1858,0.176,0.1721,0.1785,0.1582,0.1546,0.1448,0.1449,0.1367,0.1358,0.1157,0.1157,0.1158,0.1395,0,0,0,0,0,0,0.2051,0.203,0.2059,0.2055,0.1997,0.1947,0.1937,0.1951,0.1763,0.1733,0.1871,0.1858,0.1588,0.1558,0.1531,0.1462,0.1381,0.1372,0.1366,0.1157,0.1157,0.1158,0,0,0,0,0,0,0.2027,0.2028,0.2057,0.2005,0.1993,0.1941,0.1932,0.1853,0.1756,0.188,0.1867,0.1866,0.1572,0.1568,0.1546,0.1431,0.1392,0.1383,0.1377,0.1373,0.1157,0.1158,0,0,0,0,0,0,0.2026,0.2026,0.2005,0.1996,0.1986,0.193,0.1861,0.1818,0.1833,0.1885,0.1819,0.1813,0.158,0.1559,0.1557,0.1453,0.1436,0.1392,0.1386,0.1381,0.1378,0,0,0,0,0,0,0,0.2024,0.2047,0.2089,0.199,0.198,0.2018,0.2016,0.2014,0.1831,0.1826,0.1821,0.1815,0.1443,0.1434,0.1424,0.1471,0,0,0.1393,0.1388,0,0,0,0,0,0,0,0,0.2044,0.2046,0.2089,0.2088,0.2088,0.2017,0.2016,0.2015,0.1831,0.1826,0.1822,0.1818,0.1441,0.1433,0.1425,0,0,0,0,0,0,0,0,0,0,0,0,0,0,0,0.2089,0.2088,0,0.2017,0.2016,0.2015,0.183,0.1826,0.1823,0.1819,0.1439,0.1432,0.1425,0,0,0,0,0,0,0,0,0,0,0,0,0,0,0,0,0,0,0,0,0,0,0,0,0,0,0,0,0,0,0,0,0,0,0,0,0,0,0,0,0,0,0,0,0,0,0,0,0,0,0,0,0,0,0,0,0,0,0,0,0,0,0,0,0,0,0,0,0]}]],[[{"header":{"parameterUnit":"kt","parameterCategory":2,"dx":1,"dy":1,"la1":30.253999710083008,"la2":30.299108505249023,"lo1":-89.0895004272461,"lo2":-89.04439544677734,"nx":28,"ny":28,"refTime":"2022-09-24T21:00:00:Z","depth":"4","parameterNumber":2,"parameterNumberName":"U-component_of_CURRENTS"},"data":[0.0404,0.0458,0.0463,0.043,0.0518,0.057,0.0633,0.0684,0.0592,0.0691,0.0673,0.0864,0.0809,0.0829,0.0804,0.0802,0.0734,0.0777,0.0779,0.0628,0.0615,0.0603,0.0748,0,0,0,0,0,0.049,0.0475,0.0571,0.0693,0.0801,0.0931,0.0966,0.1065,0.1087,0.0898,0.1019,0.0816,0.0827,0.075,0.0792,0.069,0.0633,0.0735,0.0605,0.062,0.0605,0.0751,0,0,0,0,0,0,0.0526,0.0566,0.0724,0.0935,0.1088,0.1083,0.1268,0.1223,0.1223,0.1162,0.0996,0.0953,0.0937,0.0917,0.0609,0.0593,0.0713,0.0715,0.0696,0.0681,0.0813,0.1006,0.0923,0,0,0,0,0,0.0573,0.0709,0.0865,0.1078,0.1313,0.1456,0.1647,0.1571,0.1627,0.1692,0.1405,0.1377,0.1084,0.0923,0.0761,0.05,0.0443,0.0356,0.0353,0.0561,0.069,0.0582,0.0581,0.0548,0.0546,0.0545,0.0544,0,0.0577,0.0716,0.1069,0.1194,0.1417,0.1784,0.193,0.2162,0.2049,0.1945,0.1698,0.1574,0.1416,0.0919,0.07,0.0463,0.0396,0.0314,0.0535,0.0668,0.0561,0.0564,0.0568,0.0532,0.0533,0.0534,0.0535,0,0.0586,0.0725,0.0963,0.1351,0.1518,0.1781,0.2098,0.2156,0.229,0.2113,0.2113,0.191,0.1613,0.1326,0.0849,0.0751,0.0423,0.0331,0.0294,0.0168,0.0541,0.055,0.0512,0.0517,0.052,0.0523,0.0526,0,0.0585,0.0753,0.1044,0.1168,0.1495,0.1747,0.2032,0.2192,0.2239,0.2122,0.2185,0.1941,0.1712,0.1347,0.1085,0.0748,0.0606,0.0622,0.0512,0.0427,0.0435,0.0337,0.0335,0.0364,0.0365,0.0366,0.0367,0,0.0534,0.0743,0.0962,0.1045,0.1343,0.16,0.1824,0.1995,0.2024,0.211,0.2034,0.1908,0.1722,0.1495,0.1041,0.1092,0.0559,0.0538,0.0517,0.0524,0.0342,0.0339,0.0368,0.0368,0.0369,0.0369,0.037,0,0.0488,0.0576,0.0809,0.1076,0.1148,0.1386,0.1704,0.1851,0.1908,0.1925,0.1873,0.1733,0.1569,0.1448,0.1073,0.113,0.0934,0.0692,0.0677,0.0762,0.0591,0.0418,0.0459,0.046,0.0462,0.0463,0.0464,0,0.0408,0.0542,0.061,0.0864,0.097,0.1106,0.1301,0.1459,0.1535,0.1615,0.1453,0.144,0.1337,0.1282,0.1154,0.082,0.0764,0.0838,0.0465,0.0458,0.061,0.0678,0.0626,0.0483,0.0481,0.0479,0.0478,0,0.0323,0.0413,0.0429,0.0538,0.0678,0.0786,0.1,0.1151,0.1259,0.1334,0.1407,0.1304,0.1217,0.115,0.0973,0.0845,0.0781,0.0733,0.072,0.071,0.053,0.0679,0.0682,0.0632,0.0631,0.063,0.0491,0,0.0289,0.0338,0.0365,0.0461,0.0554,0.0639,0.0735,0.0879,0.0982,0.1011,0.1043,0.093,0.0904,0.0818,0.0746,0.068,0.0642,0.0511,0.0469,0.051,0.0441,0.0431,0.0492,0.0489,0.0486,0.0484,0,0,0.0196,0.0233,0.0204,0.0256,0.0323,0.0332,0.0455,0.052,0.0637,0.0696,0.0705,0.0672,0.0608,0.0538,0.0567,0.0509,0.0445,0.0583,0.0489,0.049,0.0491,0.0429,0.0423,0.0479,0.0478,0.0477,0.0476,0,0.0158,0.0144,0.0184,0.0206,0.0233,0.0274,0.0305,0.0376,0.0448,0.0595,0.0512,0.0478,0.0545,0.0456,0.0407,0.0475,0.0386,0.045,0.062,0.0468,0.0474,0.0478,0.0419,0.0415,0.0469,0.0469,0.047,0,0.0099,0.0078,0.0093,0.009,0.0102,0.0183,0.0114,0.0181,0.0296,0.021,0.042,0.0346,0.026,0.031,0.033,0.0307,0.033,0.0347,0.0358,0.0427,0.0268,0.0274,0.028,0.0209,0.0209,0.0209,0,0,0.007,0.0084,0.006,0.0077,0.0082,0.0095,0.0113,0.0148,0.018,0.0215,0.0271,0.0279,0.0241,0.027,0.0263,0.0321,0.0247,0.0325,0.0337,0.0348,0.0421,0.0267,0.0273,0.0209,0.0209,0.0209,0,0,0.0058,0.0031,0.0025,0.0036,0.0047,0.0042,0.0077,0.0095,0.0164,0.0203,0.0181,0.0189,0.0248,0.0218,0.0224,0.025,0.0183,0.0185,0.0318,0.0332,0.0344,0.0439,0.0168,0,0,0,0,0,0.0005,0.0024,0.0019,0.0015,0.0019,0.0035,0.0042,0.0061,0.0082,0.0128,0.0166,0.0138,0.0202,0.0208,0.0214,0.0252,0.0211,0.021,0.021,0.0391,0.0406,0.0419,0,0,0,0,0,0,0.0003,-0.0001,0.0017,0.0004,0.0003,0.0034,0.002,0.0028,0.0078,0.0085,0.0133,0.0137,0.0124,0.0203,0.0209,0.0245,0.0166,0.0211,0.021,0.021,0.0396,0.0409,0.0419,0,0,0,0,0,0.0001,-0.0002,-0.0003,0.0006,0.0006,0.0022,0.0022,0.0028,0.0099,0.0074,0.0083,0.0115,0.0123,0.013,0.0206,0.0243,0.0162,0.0165,0.021,0.021,0.021,0.0402,0,0,0,0,0,0,0.0,0.0032,-0.0002,-0.0001,0.0004,0.0025,0.0029,0.0028,0.0089,0.0094,0.0048,0.0051,0.0123,0.0128,0.0134,0.0244,0.0159,0.0161,0.0163,0.021,0.021,0.021,0,0,0,0,0,0,0.0033,0.0034,-0.0,-0.0003,-0.0001,0.0027,0.003,0.0051,0.009,0.0064,0.0065,0.0048,0.0103,0.0127,0.0131,0.0164,0.0156,0.0159,0.016,0.0161,0.021,0.021,0,0,0,0,0,0,0.0034,0.0035,-0.0002,-0.0001,0.0001,0.0026,0.0048,0.0056,0.0077,0.0062,0.0077,0.0078,0.01,0.0106,0.0129,0.016,0.0163,0.0157,0.0158,0.0159,0.016,0,0,0,0,0,0,0,0.0035,0.0022,-0.0025,0.0001,0.0003,0.0004,0.0007,0.0009,0.0077,0.0077,0.0077,0.0078,0.0144,0.0147,0.0149,0.0157,0,0,0.0156,0.0157,0,0,0,0,0,0,0,0,0.0023,0.0023,-0.0026,-0.0026,-0.0027,0.0005,0.0006,0.0008,0.0077,0.0077,0.0077,0.0077,0.0145,0.0147,0.0149,0,0,0,0,0,0,0,0,0,0,0,0,0,0,0,-0.0026,-0.0026,0,0.0005,0.0006,0.0008,0.0077,0.0077,0.0077,0.0077,0.0145,0.0147,0.0149,0,0,0,0,0,0,0,0,0,0,0,0,0,0,0,0,0,0,0,0,0,0,0,0,0,0,0,0,0,0,0,0,0,0,0,0,0,0,0,0,0,0,0,0,0,0,0,0,0,0,0,0,0,0,0,0,0,0,0,0,0,0,0,0,0,0,0,0,0]}],[{"header":{"parameterUnit":"kt","parameterCategory":2,"dx":1,"dy":1,"la1":30.253999710083008,"la2":30.299108505249023,"lo1":-89.0895004272461,"lo2":-89.04439544677734,"nx":28,"ny":28,"refTime":"2022-09-24T21:00:00:Z","depth":"4","parameterNumber":3,"parameterNumberName":"V-component_of_CURRENTS"},"data":[0.1408,0.1524,0.153,0.1817,0.2023,0.2367,0.2441,0.2159,0.1728,0.1339,0.1126,0.0993,0.0613,0.0695,0.0229,0.0159,0.0134,-0.0336,-0.0337,-0.0395,-0.0395,-0.0396,-0.0342,0,0,0,0,0,0.147,0.1479,0.1675,0.184,0.2271,0.2574,0.257,0.2527,0.2095,0.1575,0.1436,0.0928,0.0556,0.0242,0.0186,-0.0066,-0.0187,-0.0144,-0.0182,-0.0395,-0.0395,-0.0343,0,0,0,0,0,0,0.1441,0.1458,0.1639,0.1988,0.2396,0.2572,0.2718,0.246,0.232,0.1512,0.1254,0.0761,0.0454,0.015,-0.0053,-0.0135,-0.0164,-0.0157,-0.017,-0.0173,-0.0096,0.0052,-0.0006,0,0,0,0,0,0.1414,0.1561,0.1605,0.2017,0.2366,0.2636,0.2835,0.267,0.2342,0.2216,0.1397,0.1064,0.0506,0.0078,0.0002,-0.0201,-0.0379,-0.0381,-0.0382,-0.0365,-0.0275,-0.0269,-0.0255,-0.0397,-0.0397,-0.0397,-0.0397,0,0.1347,0.1479,0.1708,0.1883,0.2094,0.2497,0.2728,0.2745,0.2509,0.195,0.156,0.1158,0.0664,0.0182,-0.0144,-0.0356,-0.0343,-0.0382,-0.0364,-0.0274,-0.0272,-0.0256,-0.0241,-0.0398,-0.0397,-0.0397,-0.0397,0,0.1348,0.139,0.1488,0.1665,0.1835,0.2034,0.2349,0.2364,0.2249,0.1924,0.187,0.1162,0.07,0.0362,-0.0009,-0.0144,-0.0359,-0.0356,-0.025,-0.0253,-0.0251,-0.0235,-0.0398,-0.0398,-0.0398,-0.0398,-0.0398,0,0.1262,0.1314,0.1487,0.1551,0.1732,0.1731,0.1928,0.1823,0.1719,0.1486,0.1212,0.0881,0.0544,0.0222,0.008,-0.0157,-0.0214,-0.0234,-0.0248,-0.0199,-0.0184,-0.0199,-0.0182,-0.0339,-0.0338,-0.0338,-0.0337,0,0.126,0.124,0.1314,0.1306,0.1296,0.1433,0.1506,0.1361,0.1302,0.111,0.0974,0.0638,0.0537,0.0348,0.0099,0.0121,-0.0222,-0.0224,-0.0209,-0.0202,-0.0189,-0.0173,-0.0336,-0.0336,-0.0336,-0.0336,-0.0336,0,0.1178,0.1185,0.1231,0.1213,0.121,0.1299,0.1229,0.1175,0.0964,0.0884,0.0707,0.0545,0.0316,0.0363,0.0045,0.0118,0.0097,-0.0009,-0.0014,0.0024,0.0059,0.0131,-0.0025,-0.0022,-0.002,-0.0018,-0.0016,0,0.1186,0.1175,0.1124,0.1129,0.114,0.1082,0.1027,0.0947,0.0856,0.0749,0.0561,0.0486,0.0436,0.0452,0.0291,0.0133,0.0079,0.0155,0.0057,0.0055,0.0131,-0.0011,0.0089,0.0015,0.0011,0.0009,0.0007,0,0.1181,0.1147,0.1147,0.117,0.1095,0.1084,0.1007,0.0918,0.0886,0.0808,0.0706,0.0505,0.0499,0.0415,0.0335,0.0224,0.0128,0.0279,0.0275,0.0293,-0.0013,0.0027,0.0012,0.011,0.0106,0.0102,0.0028,0,0.1158,0.1164,0.115,0.1111,0.1083,0.1071,0.1004,0.1001,0.1014,0.095,0.0809,0.0702,0.0596,0.0515,0.0487,0.0314,0.0368,0.0349,0.041,0.0302,0.0287,0.0269,0.0489,0.049,0.049,0.0491,0,0,0.1187,0.116,0.1134,0.1107,0.1083,0.1083,0.1073,0.1034,0.1012,0.0974,0.1027,0.0817,0.0759,0.0541,0.0502,0.0471,0.0473,0.0541,0.0353,0.0338,0.0324,0.0304,0.0286,0.0492,0.0493,0.0493,0.0493,0,0.1152,0.1144,0.1142,0.111,0.1092,0.1063,0.1078,0.1063,0.1064,0.1027,0.0979,0.089,0.0822,0.0693,0.0622,0.05,0.0534,0.0492,0.0466,0.0363,0.0347,0.0332,0.031,0.0294,0.0495,0.0495,0.0495,0,0.1147,0.1112,0.1112,0.1065,0.1057,0.1025,0.1051,0.106,0.1034,0.1039,0.1024,0.0967,0.0867,0.0765,0.0733,0.0763,0.0602,0.0657,0.065,0.0661,0.0558,0.0539,0.0522,0.0751,0.0752,0.0753,0,0,0.1129,0.1117,0.1067,0.1054,0.1045,0.104,0.1039,0.1059,0.1036,0.1051,0.1039,0.0997,0.0897,0.0882,0.0812,0.0746,0.073,0.0691,0.0679,0.0669,0.0675,0.057,0.0551,0.0757,0.0757,0.0757,0,0,0.1116,0.1064,0.1079,0.1056,0.1029,0.0984,0.0996,0.102,0.1027,0.1064,0.1035,0.1029,0.0958,0.0944,0.1003,0.0827,0.0871,0.0859,0.0856,0.0841,0.0829,0.0853,0.1018,0,0,0,0,0,0.107,0.1059,0.1072,0.1063,0.1024,0.0972,0.097,0.0991,0.1049,0.1062,0.1048,0.1069,0.094,0.0993,0.0985,0.0929,0.0813,0.0803,0.0794,0.0772,0.0756,0.0742,0,0,0,0,0,0,0.1066,0.1054,0.1071,0.1021,0.1011,0.0973,0.1005,0.1011,0.1048,0.1059,0.1067,0.1066,0.1038,0.0998,0.0991,0.0936,0.102,0.081,0.0801,0.0793,0.0767,0.0753,0.0742,0,0,0,0,0,0.1062,0.1052,0.099,0.1022,0.1014,0.1022,0.1008,0.1014,0.1073,0.1017,0.1022,0.1094,0.1036,0.1032,0.0994,0.0939,0.1026,0.1023,0.0804,0.0797,0.0791,0.076,0,0,0,0,0,0,0.1059,0.1073,0.0989,0.0987,0.1046,0.1028,0.1028,0.1016,0.1031,0.1034,0.1035,0.1042,0.1034,0.1031,0.1027,0.0939,0.103,0.1027,0.1025,0.0799,0.0794,0.0789,0,0,0,0,0,0,0.1077,0.1072,0.0988,0.1017,0.1019,0.1033,0.1033,0.0993,0.1031,0.1052,0.1056,0.1038,0.103,0.103,0.1028,0.0966,0.1033,0.1031,0.1029,0.1027,0.0795,0.0791,0,0,0,0,0,0,0.1075,0.107,0.1019,0.102,0.1022,0.1006,0.0999,0.0962,0.1052,0.1052,0.1059,0.1063,0.1027,0.1026,0.1027,0.0967,0.0966,0.1033,0.1031,0.103,0.1029,0,0,0,0,0,0,0,0.1073,0.1104,0.099,0.1023,0.1025,0.0962,0.0963,0.0964,0.1053,0.1056,0.1059,0.1061,0.1049,0.1046,0.1043,0.0967,0,0,0.1034,0.1032,0,0,0,0,0,0,0,0,0.1106,0.1104,0.099,0.0989,0.0987,0.0962,0.0963,0.0963,0.1053,0.1056,0.1058,0.106,0.1048,0.1046,0.1043,0,0,0,0,0,0,0,0,0,0,0,0,0,0,0,0.099,0.0989,0,0.0962,0.0963,0.0963,0.1054,0.1056,0.1057,0.1059,0.1048,0.1046,0.1044,0,0,0,0,0,0,0,0,0,0,0,0,0,0,0,0,0,0,0,0,0,0,0,0,0,0,0,0,0,0,0,0,0,0,0,0,0,0,0,0,0,0,0,0,0,0,0,0,0,0,0,0,0,0,0,0,0,0,0,0,0,0,0,0,0,0,0,0,0]}]]]